This is the latest recevied weather packets stored in our database for station/object WZ8H. If no packets are shown the sender has not sent any weather packets the latest 10 day(s).
| Time | Temp. | Humidity | Pressure | Rain* | Wind** | Luminosity | Snow |
|---|---|---|---|---|---|---|---|
| 1777715210 | 3.89° C | 86% | 1015.7 hPa | 0 mm | - | 0 W/m² | - |
| 1777714907 | 3.89° C | 86% | 1015.7 hPa | 0.25 mm | - | 0 W/m² | - |
| 1777714580 | 3.89° C | 86% | 1015.4 hPa | 0.51 mm | - | 0 W/m² | - |
| 1777714252 | 3.89° C | 87% | 1015.5 hPa | 0.76 mm | - | 0 W/m² | - |
| 1777713949 | 3.89° C | 87% | 1015.5 hPa | 1.02 mm | - | 0 W/m² | - |
| 1777713646 | 3.89° C | 88% | 1015.4 hPa | 1.52 mm | - | 0 W/m² | - |
| 1777713342 | 3.89° C | 87% | 1015.3 hPa | 2.03 mm | - | 0 W/m² | - |
| 1777713039 | 3.89° C | 87% | 1015.4 hPa | 2.29 mm | - | 0 W/m² | - |
| 1777712736 | 3.89° C | 88% | 1015.3 hPa | 2.79 mm | - | 0 W/m² | - |
| 1777712409 | 3.89° C | 88% | 1015.3 hPa | 3.05 mm | - | 0 W/m² | - |
| 1777712106 | 3.89° C | 89% | 1015.3 hPa | 3.05 mm | - | 0 W/m² | - |
| 1777711781 | 3.89° C | 90% | 1015.4 hPa | 3.05 mm | - | 0 W/m² | - |
| 1777711476 | 3.33° C | 90% | 1015.5 hPa | 2.79 mm | - | 0 W/m² | - |
| 1777711149 | 3.33° C | 89% | 1015.7 hPa | 3.05 mm | - | 0 W/m² | - |
| 1777710847 | 3.33° C | 89% | 1015.5 hPa | 3.3 mm | - | 0 W/m² | - |
| 1777710543 | 3.33° C | 90% | 1015.4 hPa | 3.3 mm | - | 0 W/m² | - |
| 1777710241 | 3.33° C | 90% | 1015.5 hPa | 3.81 mm | - | 0 W/m² | - |
| 1777709914 | 3.33° C | 90% | 1015.3 hPa | 3.81 mm | - | 0 W/m² | - |
| 1777709590 | 3.33° C | 89% | 1015.4 hPa | 4.06 mm | - | 0 W/m² | - |
| 1777709282 | 3.89° C | 89% | 1015.2 hPa | 3.56 mm | - | 0 W/m² | - |
| 1777708982 | 3.89° C | 89% | 1015.1 hPa | 3.3 mm | - | 0 W/m² | - |
| 1777708653 | 3.89° C | 89% | 1015.2 hPa | 3.05 mm | - | 0 W/m² | - |
| 1777708351 | 4.44° C | 89% | 1015.1 hPa | 3.05 mm | - | 0 W/m² | - |
| 1777708025 | 4.44° C | 89% | 1015 hPa | 3.05 mm | - | 0 W/m² | - |
| 1777707726 | 4.44° C | 88% | 1014.9 hPa | 3.05 mm | - | 0 W/m² | - |
* Rain latest hour (hover to see other rain measurements)
** Current wind speed in m/s (hover to see current wind gust speed)